Location: Newark
(44.9333°N, 0.5667°E)
Time: 10:14:45
(UTC+00:00)

Oscar 11 - Pass Details

Date: 03 March 2020
Orbit: 612 x 626 km, 97.6° (Epoch: 06 April)

Event Time Altitude Azimuth Distance (km) Brightness Sun altitude
Rises 18:39:57 0° 190° (S) 2,897 10.6 -9.9°
Reaches altitude 10° 18:42:19 10° 200° (SSW) 1,995 9.9 -10.3°
Maximum altitude 18:46:12 32° 264° (W) 1,085 9.2 -11.0°
Drops below altitude 10° 18:50:08 10° 328° (NNW) 2,006 10.2 -11.7°
Sets 18:52:32 0° 338° (NNW) 2,915 10.9 -12.1°
